Probability
0 0 0 0 0 0 0 0 0 0 0 0 0 0 0 0 0 0 0 0 0 0 0 0 0 0 0 0 0 0 0 0 0 0 0 0 0 0 0 0 0 0 0
0 0 0 0 0 0 0 0 0 0 0 0 0 0 0 0 0 0 0 0 0 0 0 0 0 0 0 0 0 0 0 0 0 0 0 0 0 0 0 0 0 0 0
0 0 0 0 0 0 0 0 0 0 0 0 0 0 0 0 0 0 0 0 0 0 0 0 0 0 0 0 0 0 0 0 0 0 0 0 0 0 0 0 0 0 0
0 0 0 0 0 0 0 0 0 0 0 0 0 0 0 0 0 0 0 0 0 0 0 0 0 0 0 0 0 0 0 0 0 0 0 0 0 0 0 0 0 0 0
0 0 0 0 0 0 0 0 0 0 0 0 0 0 0 0 0 0 0 0 0 0 0 0 0 0 0 0 0 0 0 0 0 0 0 0 0 0 0 0 0 0 0
0 0 0 0 0 0 0 0 0 0 0 0 0 0 0 0 0 0 0 0 0 0 0 0 0 0 0 0 0 0 0 0 0 0 0 0 0 0 0 0 0 0 0
0 0 0 0 0 0 0 0 0 0 0 0 0 0 0 0 0 0 0 0 0 0 0 0 0 0 0 0 0 0 0 0 0 0 0 0 0 0 0 0 0 0 0
0 0 0 0 0 0 0 0 0 0 0 0 0 0 0 0 0 0 0 0 0 0 0 0 0 0 0 0 0 0 0 0 0 0 0 0 0 0 0 0 0 0 0
0 0 0 0 0 0 0 0 0 0 0 0 0 0 0 0 0 0 0 0 0 0 0 0 0 0 0 0 0 0 0 0 0 0 0 0 0 0 0 0 0 0 0
0 0 0 0 0 0 0 0 0 0 0 0 0 0 0 0 0 0 0 0 0 0 0 0 0 0 0 0 0 0 0 0 0 0 0 0 0 0 0 0 0 0 0
0 0 0 0 0 0 0 0 0 0 0 0 0 0 0 0 0 0 0 0 0 0 0 0 0 0 0 0 0 0 0 0 0 0 0 0 0 0 0 0 0 0 0
0 0 0 0 0 0 0 0 0 0 0 0 0 0 0 0 0 0 0 0 0 0 0 0 0 0 0 0 0 0 0 0 0 0 0 0 0 0 0 0 0 0 0
0 0 0 0 0 0 0 0 0 0 0 0 0 0 0 0 0 0 0 0 0 0 0 0 0 0 0 0 0 0 0 0 0 0 0 0 0 0 0 0 0 0 0
0 0 0 0 0 0 0 0 0 0 0 0 0 0 0 0 0 0 0 0 0 0 0 0 0 0 0 0 0 0 0 0 0 0 0 0 0 0 0 0 0 0 0
0 0 0 0 0 0 0 0 0 0 0 0 0 0 0 0 0 0 0 0 0 0 0 0 0 0 0 0 0 0 0 0 0 0 0 0 0 0 0 0 0 0 0
0 0 0 0 0 0 0 0 0 0 0 0 0 0 0 0 0 0 0 0 0 0 0 0 0 0 0 0 0 0 0 0 0 0 0 0 0 0 0 0 0 0 0
0 0 0 0 0 0 0 0 0 0 0 0 0 0 0 0 0 0 0 0 0 0 0 0 0 0 0 0 0 0 0 0 0 0 0 0 0 0 0 0 0 0 0
0 0 0 0 0 0 0 0 0 0 0 0 0 0 0 0 0 0 0 0 0 0 0 0 0 0 0 0 0 0 0 0 0 0 0 0 0 0 0 0 0 0 0
0 0 0 0 0 0 0 0 0 0 0 0 0 0 0 0 0 0 0 0 0 0 0 0 0 0 0 0 0 0 0 0 0 0 0 0 0 0 0 0 0 0 0
0 0 0 0 0 0 0 0 0 0 0 0 0 0 0 0 0 0 0 0 0 0 0 0 0 0 0 0 0 0 0 0 0 0 0 0 0 0 0 0 0 0 0
0 0 0 0 0 0 0 0 0 0 0 0 0 0 0 0 0 0 0 0 0 0 0 0 0 0 0 0 0 0 0 0 0 0 0 0 0 0 0 0 0 0 0
0 0 0 0 0 0 0 0 0 0 0 0 0 0 0 0 0 0 0 0 0 0 0 0 0 0 0 0 0 0 0 0 0 0 0 0 0 0 0 0 0 0 0
0 0 0 0 0 0 0 0 0 0 0 0 0 0 0 0 0 0 0 0 0 0 0 0 0 0 0 0 0 0 0 0 0 0 0 0 0 0 0 0 0 0 0
0 0 0 0 0 0 0 0 0 0 0 0 0 0 0 0 0 0 0 0 0 0 0 0 0 0 0 0 0 0 0 0 0 0 0 0 0 0 0 0 0 0 0
0 0 0 0 0 0 0 0 0 0 0 0 0 0 0 0 0 0 0 0 0 0 0 0 0 0 0 0 0 0 0 0 0 0 0 0 0 0 0 0 0 0 0
0 0 0 0 0 0 0 0 0 0 0 0 0 0 0 0 0 0 0 0 0 0 0 0 0 0 0 0 0 0 0 0 0 0 0 0 0 0 0 0 0 0 0
Wind_Speed
4 5 5 5 5 5 5 6 6 7 8 9 9 9 9 9 8 8 9 9 11 11 10 12 13 10 9 8 7 7 7 6 7 5 5 6 11 11 11 10 9 10 11
4 5 5 5 5 5 5 6 6 7 7 8 9 9 9 9 9 9 10 10 12 13 12 13 14 10 13 9 9 10 9 7 6 6 5 5 8 13 12 12 10 9 8
5 5 6 6 6 6 6 6 7 7 8 8 8 9 9 9 9 9 10 11 12 13 12 14 13 12 15 10 10 11 8 7 5 6 6 4 4 9 10 7 8 6 7
5 6 7 7 7 7 7 8 8 8 8 9 9 9 10 10 10 10 10 11 11 12 13 14 13 14 15 13 11 12 9 9 7 5 5 5 4 7 10 10 8 7 7
6 7 8 8 8 8 9 9 9 9 10 10 10 10 10 9 9 10 10 10 12 13 13 13 14 15 18 15 12 11 11 10 9 8 6 6 7 11 14 11 10 8 6
6 8 8 9 10 10 11 11 11 11 10 10 11 11 11 10 17 22 17 11 11 13 14 13 13 15 16 23 25 21 19 17 15 13 11 11 14 11 11 11 10 9 8
8 9 9 10 11 12 12 12 13 12 12 12 12 12 13 15 24 24 22 14 12 13 14 13 12 11 14 14 19 25 25 29 27 19 17 16 13 15 17 16 15 12 9
9 10 10 10 12 13 13 14 14 12 13 14 14 13 14 18 26 27 25 16 13 14 14 14 15 14 13 15 14 16 18 20 24 20 17 14 11 13 18 17 15 8 4
11 11 11 10 11 12 13 15 14 13 14 14 15 15 16 19 27 28 28 12 12 15 15 14 15 16 21 26 19 18 18 17 25 24 19 15 17 21 20 11 12 11 6
11 12 12 11 11 13 14 15 13 13 15 16 17 15 16 18 26 31 30 13 14 14 13 13 16 18 24 27 20 18 20 16 10 14 16 16 14 19 29 20 17 15 9
12 13 14 13 13 15 15 14 14 15 16 17 18 18 17 19 26 32 32 16 13 13 12 11 12 22 26 28 26 19 22 16 10 12 10 9 9 10 15 14 12 12 12
14 14 14 14 14 14 15 16 15 15 17 18 18 19 16 16 20 25 30 29 25 16 14 11 12 23 26 27 22 23 28 23 11 12 13 14 13 12 10 10 8 5 4
13 13 14 14 13 13 14 16 15 14 14 15 15 16 15 13 15 27 29 30 30 19 13 20 23 27 26 21 25 27 21 14 13 14 14 14 11 10 9 9 9 8 8
14 15 14 14 14 13 12 13 13 13 14 15 15 16 15 14 12 11 12 14 18 18 14 14 21 25 23 20 14 17 14 12 13 12 11 9 9 10 11 11 11 11 9
15 15 15 14 14 13 13 12 15 14 16 18 15 15 16 16 17 26 21 14 11 12 14 11 10 9 10 10 9 10 11 11 12 11 10 10 10 11 10 10 10 11 9
15 14 13 13 13 13 14 14 22 25 31 34 33 31 22 28 34 36 35 36 36 33 23 14 12 10 10 9 8 9 10 10 10 10 10 11 11 11 10 10 10 10 10
14 15 13 13 13 14 14 15 16 18 26 30 32 34 33 34 35 35 34 35 34 33 21 14 11 10 9 8 8 8 8 7 8 10 10 11 12 12 11 11 11 10 10
14 15 14 13 13 13 14 14 15 15 16 14 20 28 32 32 33 33 32 28 19 18 14 13 11 10 8 8 7 7 7 8 9 10 11 12 12 12 12 12 11 11 10
13 12 11 12 13 13 14 14 14 15 15 14 13 16 21 26 29 29 27 15 13 13 12 12 10 9 7 7 7 7 8 9 10 10 10 11 11 11 11 11 10 13 11
11 16 16 13 13 13 13 13 13 13 13 13 13 13 12 13 12 14 12 11 11 11 11 10 7 7 7 7 7 7 8 8 10 9 9 10 10 10 11 12 11 11 9
11 12 15 13 12 12 12 12 12 12 12 12 12 15 23 14 12 13 12 11 9 8 7 6 5 6 6 7 7 8 9 8 8 9 9 9 10 10 10 10 10 10 9
9 10 10 11 11 11 12 12 11 11 12 12 12 13 19 12 10 10 10 10 9 6 2 2 3 4 5 6 7 8 9 9 9 9 9 9 9 10 10 10 10 9 9
9 11 11 10 10 13 12 10 10 11 11 11 11 10 10 9 9 9 10 9 8 8 7 5 5 6 6 5 5 6 8 8 9 10 11 10 10 10 10 11 12 11 10
9 10 11 10 10 10 11 11 10 11 11 10 10 9 9 9 9 9 9 9 9 9 9 8 8 10 10 8 7 6 6 8 9 9 12 12 11 10 10 10 10 10 9
8 8 9 9 10 10 11 11 11 11 10 10 10 9 9 9 9 9 8 8 9 10 11 10 8 9 12 12 10 9 12 13 11 9 9 10 11 11 10 10 9 8 7
7 8 8 8 9 9 10 10 11 11 10 10 10 9 9 9 9 9 8 8 8 9 9 9 11 12 11 10 12 13 14 14 14 13 9 9 10 9 9 8 9 7 7
Wind_Direction
350 343 337 330 326 324 321 321 322 320 321 319 316 311 304 296 282 260 248 241 242 245 242 241 242 232 232 230 227 225 219 195 197 193 182 173 175 181 184 180 183 187 193
329 320 313 308 307 308 306 308 309 309 310 309 309 307 302 297 290 276 264 251 245 245 243 243 244 235 235 228 224 226 223 211 187 179 180 166 182 184 179 179 184 186 185
311 309 306 303 302 299 297 298 299 298 298 298 298 297 296 293 288 281 273 263 253 248 243 243 243 235 240 231 225 225 222 216 203 175 178 169 164 174 171 174 178 180 188
293 293 293 293 293 292 293 290 288 287 287 286 284 284 284 285 283 280 276 272 265 258 249 245 242 236 239 232 228 225 216 213 208 189 173 169 159 168 173 176 183 190 193
283 284 284 288 289 288 285 283 281 277 275 275 277 278 276 277 276 279 277 272 269 267 260 252 246 241 239 233 229 222 211 213 207 201 189 169 175 174 185 182 189 183 195
283 278 281 285 286 284 283 283 283 281 278 275 274 274 274 272 280 285 284 275 271 269 267 261 253 246 242 240 236 227 215 214 214 211 207 200 196 186 177 179 172 168 198
279 278 279 282 284 285 287 286 284 283 282 280 278 275 274 274 281 283 283 280 274 270 267 265 259 251 243 242 242 238 230 224 218 213 216 214 194 186 181 182 188 186 189
281 279 279 280 282 286 287 286 288 289 286 284 283 279 278 278 282 283 283 279 272 268 264 262 261 257 245 240 237 236 235 231 226 221 223 216 200 188 190 189 187 170 92
288 287 289 289 288 289 286 286 286 286 284 284 284 282 278 279 282 284 284 276 271 269 265 260 257 257 254 247 241 238 238 236 234 225 219 210 199 189 182 171 168 168 170
305 308 309 308 305 300 296 295 294 291 286 285 282 281 280 280 281 283 282 274 268 267 265 259 253 252 254 251 243 237 238 234 219 224 220 214 202 193 189 187 181 183 173
327 324 322 321 315 306 302 298 296 292 290 287 285 282 278 276 279 280 278 271 264 265 264 262 257 260 258 254 246 238 238 230 213 212 209 201 192 191 193 192 192 187 179
324 320 316 312 307 304 300 297 293 290 287 284 282 281 276 275 275 276 276 272 268 263 261 261 260 265 264 259 252 241 238 232 216 209 209 207 203 197 188 179 177 169 159
318 310 304 300 297 294 292 292 291 286 283 283 282 282 282 280 280 282 282 280 277 271 266 265 267 269 267 262 253 244 235 223 212 209 209 208 201 186 169 159 144 120 103
308 305 302 300 296 292 288 287 285 284 283 282 282 282 283 282 282 283 280 279 278 279 279 276 276 274 267 256 244 238 226 217 210 209 204 193 180 177 177 169 160 149 134
305 302 301 297 294 293 288 282 283 275 275 280 278 276 278 278 274 278 278 276 272 266 274 271 263 258 255 245 232 223 218 211 206 198 190 181 178 177 175 169 164 161 161
304 302 300 298 296 293 292 290 286 286 288 288 287 285 283 282 286 283 281 279 279 276 274 265 260 248 244 238 228 217 213 207 196 184 179 174 172 170 165 166 169 172 167
297 298 297 295 294 293 293 294 294 293 289 290 290 291 290 290 289 288 284 281 277 273 267 260 253 243 234 229 223 215 207 192 175 171 168 166 164 165 167 170 172 172 166
294 293 291 290 291 291 290 290 290 292 295 291 290 291 293 293 293 291 287 283 273 265 255 253 245 235 226 220 214 200 181 168 167 166 165 165 165 166 169 172 172 169 160
295 292 291 290 290 289 289 289 289 289 290 292 293 294 294 296 296 293 291 275 263 255 249 245 235 222 214 204 192 180 171 167 165 163 163 163 164 164 167 168 166 162 155
295 294 297 296 294 294 293 293 293 293 295 295 295 297 298 294 290 289 284 271 261 251 242 236 223 205 193 181 169 163 160 160 158 158 158 159 160 161 161 160 159 157 153
297 297 298 298 298 299 300 300 299 298 297 297 296 297 305 305 303 302 299 292 279 262 243 217 194 179 169 158 154 152 151 152 151 151 151 152 151 150 150 150 149 146 142
300 302 303 302 303 304 306 306 306 306 306 305 306 310 317 317 312 311 314 314 315 304 284 155 141 137 139 143 145 145 146 145 145 145 144 143 142 141 141 141 140 140 138
309 308 308 309 309 311 314 314 316 316 316 316 317 319 322 324 325 328 330 334 343 355 10 41 74 79 81 91 109 129 139 144 144 145 143 141 139 139 138 138 138 138 140
312 314 315 316 319 321 322 322 323 325 326 327 329 330 332 334 337 342 347 353 5 15 24 36 52 67 76 79 83 91 104 116 125 133 136 137 134 132 130 131 132 137 139
319 320 322 323 324 326 327 329 331 334 335 337 339 340 343 346 352 356 1 9 20 30 35 38 45 55 67 75 82 92 109 113 115 119 122 123 123 122 124 126 129 132 134
324 326 327 328 329 330 332 333 335 338 340 343 345 347 351 355 1 6 10 18 27 34 39 43 50 59 65 73 84 95 102 105 106 108 109 112 113 116 119 121 127 131 135